| time (UTC) | temp C | wind direction | speed KPH | gust KPH | rain 1hr cm | rain 24hr cm | rain mn cm | humidity % | barometer mb |
| 20260508005014 | 2 | 0 | 0.0 | 0.0 | 0.00 | 0.00 | 0.00 | 89 | 1017.0 |
| 20260508004529 | 2 | 0 | 0.0 | 0.0 | 0.00 | 0.00 | 0.00 | 89 | 1017.1 |
| 20260508004014 | 2 | 0 | 0.0 | 0.0 | 0.00 | 0.00 | 0.00 | 89 | 1017.1 |
| 20260508003511 | 3 | 0 | 0.0 | 0.0 | 0.00 | 0.00 | 0.00 | 89 | 1017.2 |
| 20260508003031 | 3 | 0 | 0.0 | 0.0 | 0.00 | 0.00 | 0.00 | 89 | 1017.3 |
| 20260508002514 | 3 | 0 | 0.0 | 0.0 | 0.00 | 0.00 | 0.00 | 89 | 1017.2 |
| 20260508002014 | 3 | 0 | 0.0 | 0.0 | 0.00 | 0.00 | 0.00 | 89 | 1017.3 |
| 20260508001558 | 3 | 0 | 0.0 | 0.0 | 0.00 | 0.00 | 0.00 | 89 | 1017.2 |
| 20260508001013 | 3 | 0 | 0.0 | 0.0 | 0.00 | 0.00 | 0.00 | 89 | 1017.3 |
| 20260508000511 | 3 | 0 | 0.0 | 0.0 | 0.00 | 0.00 | 0.00 | 88 | 1017.3 |
| 20260508000030 | 3 | 0 | 0.0 | 0.0 | 0.00 | 0.00 | 0.00 | 88 | 1017.3 |
| 20260507235511 | 3 | 0 | 0.0 | 1.6 | 0.00 | 0.00 | 0.00 | 88 | 1017.3 |
| 20260507235013 | 3 | 0 | 0.0 | 1.6 | 0.00 | 0.00 | 0.00 | 88 | 1017.4 |
| 20260507234533 | 3 | 0 | 0.0 | 1.6 | 0.00 | 0.00 | 0.00 | 88 | 1017.5 |
| 20260507234052 | 3 | 0 | 0.0 | 1.6 | 0.00 | 0.00 | 0.00 | 88 | 1017.3 |
| 20260507233513 | 3 | 0 | 0.0 | 1.6 | 0.00 | 0.00 | 0.00 | 88 | 1017.4 |
| 20260507233029 | 4 | 0 | 0.0 | 0.0 | 0.00 | 0.00 | 0.00 | 88 | 1017.4 |
| 20260507232513 | 4 | 0 | 0.0 | 0.0 | 0.00 | 0.00 | 0.00 | 88 | 1017.5 |
| 20260507232011 | 4 | 0 | 0.0 | 1.6 | 0.00 | 0.00 | 0.00 | 88 | 1017.6 |
| 20260507231535 | 4 | 0 | 0.0 | 3.2 | 0.00 | 0.00 | 0.00 | 88 | 1017.7 |
| 20260507231010 | 5 | 360 | 0.0 | 3.2 | 0.00 | 0.00 | 0.00 | 88 | 1017.6 |
| 20260507230515 | 5 | 360 | 0.0 | 1.6 | 0.00 | 0.00 | 0.00 | 88 | 1017.6 |
| 20260507230032 | 5 | 0 | 0.0 | 3.2 | 0.00 | 0.00 | 0.00 | 88 | 1017.6 |
| 20260507225515 | 5 | 0 | 0.0 | 4.8 | 0.00 | 0.00 | 0.00 | 88 | 1017.7 |
| 20260507225013 | 5 | 360 | 1.6 | 4.8 | 0.00 | 0.00 | 0.00 | 87 | 1017.7 |
| 20260507224540 | 5 | 360 | 1.6 | 3.2 | 0.00 | 0.00 | 0.00 | 87 | 1017.8 |
| 20260507224013 | 5 | 360 | 0.0 | 1.6 | 0.00 | 0.00 | 0.00 | 87 | 1017.7 |
| 20260507223517 | 5 | 0 | 0.0 | 1.6 | 0.00 | 0.00 | 0.00 | 87 | 1017.7 |
| 20260507223032 | 5 | 0 | 0.0 | 3.2 | 0.00 | 0.00 | 0.00 | 87 | 1017.7 |
| 20260507222512 | 5 | 0 | 0.0 | 3.2 | 0.00 | 0.00 | 0.00 | 87 | 1017.6 |
| 20260507222013 | 5 | 360 | 1.6 | 3.2 | 0.00 | 0.00 | 0.00 | 87 | 1017.6 |
| 20260507221528 | 5 | 0 | 0.0 | 3.2 | 0.00 | 0.00 | 0.00 | 86 | 1017.8 |
| 20260507221010 | 5 | 0 | 0.0 | 3.2 | 0.00 | 0.00 | 0.00 | 86 | 1017.7 |
| 20260507220510 | 5 | 360 | 0.0 | 3.2 | 0.00 | 0.00 | 0.00 | 86 | 1017.7 |
| 20260507220040 | 5 | 360 | 0.0 | 1.6 | 0.00 | 0.00 | 0.00 | 86 | 1017.8 |
| 20260507215510 | 5 | 0 | 0.0 | 0.0 | 0.00 | 0.00 | 0.00 | 85 | 1017.8 |
| 20260507215014 | 6 | 0 | 0.0 | 0.0 | 0.00 | 0.00 | 0.00 | 85 | 1017.9 |
| 20260507214536 | 6 | 0 | 0.0 | 0.0 | 0.00 | 0.00 | 0.00 | 85 | 1017.7 |
| 20260507214011 | 6 | 0 | 0.0 | 0.0 | 0.00 | 0.00 | 0.00 | 85 | 1017.7 |
| 20260507213513 | 6 | 0 | 0.0 | 0.0 | 0.00 | 0.00 | 0.00 | 85 | 1017.7 |
| 20260507213033 | 6 | 0 | 0.0 | 0.0 | 0.00 | 0.00 | 0.00 | 85 | 1017.7 |
| 20260507212513 | 6 | 0 | 0.0 | 0.0 | 0.00 | 0.00 | 0.00 | 85 | 1017.8 |
| 20260507212011 | 6 | 0 | 0.0 | 1.6 | 0.00 | 0.00 | 0.00 | 84 | 1017.7 |
| 20260507211534 | 6 | 0 | 0.0 | 1.6 | 0.00 | 0.00 | 0.00 | 84 | 1017.7 |
| 20260507211012 | 7 | 0 | 0.0 | 1.6 | 0.00 | 0.00 | 0.00 | 84 | 1017.7 |
| 20260507210511 | 7 | 0 | 0.0 | 0.0 | 0.00 | 0.00 | 0.00 | 84 | 1017.6 |
| 20260507210028 | 7 | 0 | 0.0 | 0.0 | 0.00 | 0.00 | 0.00 | 84 | 1017.5 |
| 20260507205511 | 7 | 0 | 0.0 | 0.0 | 0.00 | 0.00 | 0.00 | 83 | 1017.6 |
| 20260507205015 | 7 | 0 | 0.0 | 0.0 | 0.00 | 0.00 | 0.00 | 83 | 1017.6 |
| 20260507204530 | 8 | 0 | 0.0 | 1.6 | 0.00 | 0.00 | 0.00 | 83 | 1017.5 |
| 20260507204015 | 8 | 0 | 0.0 | 1.6 | 0.00 | 0.00 | 0.00 | 83 | 1017.6 |
| 20260507203511 | 8 | 0 | 0.0 | 1.6 | 0.00 | 0.00 | 0.00 | 83 | 1017.6 |
| 20260507203034 | 8 | 0 | 0.0 | 6.4 | 0.00 | 0.00 | 0.00 | 83 | 1017.6 |
| 20260507202514 | 8 | 360 | 1.6 | 6.4 | 0.00 | 0.00 | 0.00 | 83 | 1017.5 |
| 20260507202013 | 8 | 0 | 0.0 | 3.2 | 0.00 | 0.00 | 0.00 | 82 | 1017.5 |
| 20260507201530 | 9 | 360 | 0.0 | 3.2 | 0.00 | 0.00 | 0.00 | 82 | 1017.4 |
| 20260507201013 | 9 | 360 | 1.6 | 4.8 | 0.00 | 0.00 | 0.00 | 82 | 1017.3 |
| 20260507200510 | 9 | 0 | 0.0 | 9.7 | 0.00 | 0.00 | 0.00 | 82 | 1017.2 |
| 20260507200030 | 9 | 360 | 3.2 | 9.7 | 0.00 | 0.00 | 0.00 | 81 | 1017.1 |
| 20260507195513 | 9 | 360 | 3.2 | 9.7 | 0.00 | 0.00 | 0.00 | 81 | 1017.0 |
| 20260507195013 | 10 | 360 | 1.6 | 8.0 | 0.00 | 0.00 | 0.00 | 80 | 1017.0 |
| 20260507194532 | 10 | 0 | 1.6 | 8.0 | 0.00 | 0.00 | 0.00 | 80 | 1016.8 |
| 20260507194010 | 10 | 360 | 1.6 | 8.0 | 0.00 | 0.00 | 0.00 | 80 | 1016.7 |
| 20260507193510 | 10 | 360 | 3.2 | 8.0 | 0.00 | 0.00 | 0.00 | 79 | 1016.8 |
| 20260507193032 | 10 | 360 | 3.2 | 12.9 | 0.00 | 0.00 | 0.00 | 79 | 1016.8 |
| 20260507192513 | 10 | 360 | 3.2 | 12.9 | 0.00 | 0.00 | 0.00 | 79 | 1016.7 |
| 20260507192013 | 10 | 360 | 3.2 | 8.0 | 0.00 | 0.00 | 0.00 | 78 | 1016.7 |
| 20260507191533 | 10 | 360 | 3.2 | 12.9 | 0.00 | 0.00 | 0.00 | 78 | 1016.7 |
| 20260507191013 | 10 | 360 | 3.2 | 12.9 | 0.00 | 0.00 | 0.00 | 78 | 1016.6 |
| 20260507190510 | 11 | 360 | 4.8 | 12.9 | 0.00 | 0.00 | 0.00 | 77 | 1016.7 |
| 20260507190029 | 11 | 360 | 3.2 | 12.9 | 0.00 | 0.00 | 0.00 | 76 | 1016.7 |
| 20260507185516 | 11 | 360 | 4.8 | 14.5 | 0.00 | 0.00 | 0.00 | 75 | 1016.7 |
| 20260507185012 | 11 | 360 | 4.8 | 14.5 | 0.00 | 0.00 | 0.00 | 74 | 1016.7 |
| 20260507184530 | 11 | 360 | 6.4 | 17.7 | 0.00 | 0.00 | 0.00 | 74 | 1016.6 |
| 20260507184017 | 11 | 360 | 6.4 | 17.7 | 0.00 | 0.00 | 0.00 | 73 | 1016.6 |
| 20260507183512 | 12 | 360 | 4.8 | 16.1 | 0.00 | 0.00 | 0.00 | 72 | 1016.7 |
| 20260507183030 | 12 | 360 | 6.4 | 19.3 | 0.00 | 0.00 | 0.00 | 72 | 1016.5 |
| 20260507182513 | 12 | 360 | 4.8 | 19.3 | 0.00 | 0.00 | 0.00 | 71 | 1016.5 |
| 20260507182014 | 12 | 360 | 9.7 | 16.1 | 0.00 | 0.00 | 0.00 | 70 | 1016.4 |
| 20260507181529 | 12 | 360 | 8.0 | 17.7 | 0.00 | 0.00 | 0.00 | 71 | 1016.3 |
| 20260507181012 | 12 | 360 | 8.0 | 17.7 | 0.00 | 0.00 | 0.00 | 71 | 1016.4 |
| 20260507180516 | 12 | 360 | 8.0 | 19.3 | 0.00 | 0.00 | 0.00 | 71 | 1016.4 |
| 20260507180030 | 12 | 150 | 8.0 | 20.9 | 0.00 | 0.00 | 0.00 | 71 | 1016.2 |
| 20260507175513 | 12 | 178 | 9.7 | 22.5 | 0.00 | 0.00 | 0.00 | 70 | 1016.4 |
| 20260507175016 | 13 | 190 | 12.9 | 22.5 | 0.00 | 0.00 | 0.00 | 70 | 1016.3 |
| 20260507174540 | 13 | 131 | 6.4 | 20.9 | 0.00 | 0.00 | 0.00 | 69 | 1016.3 |
| 20260507174011 | 13 | 142 | 12.9 | 20.9 | 0.00 | 0.00 | 0.00 | 70 | 1016.3 |
| 20260507173514 | 13 | 360 | 9.7 | 20.9 | 0.00 | 0.00 | 0.00 | 70 | 1016.3 |
| 20260507173034 | 12 | 360 | 6.4 | 17.7 | 0.00 | 0.00 | 0.00 | 71 | 1016.2 |
| 20260507172512 | 12 | 360 | 9.7 | 17.7 | 0.00 | 0.00 | 0.00 | 71 | 1016.2 |
| 20260507172012 | 12 | 360 | 8.0 | 17.7 | 0.00 | 0.00 | 0.00 | 71 | 1016.3 |
| 20260507171535 | 12 | 360 | 8.0 | 16.1 | 0.00 | 0.00 | 0.00 | 71 | 1016.4 |
| 20260507171012 | 12 | 360 | 6.4 | 16.1 | 0.00 | 0.00 | 0.00 | 71 | 1016.3 |
| 20260507170511 | 12 | 360 | 8.0 | 19.3 | 0.00 | 0.00 | 0.00 | 70 | 1016.4 |
| 20260507170040 | 12 | 360 | 6.4 | 19.3 | 0.00 | 0.00 | 0.00 | 70 | 1016.4 |
| 20260507165514 | 12 | 360 | 6.4 | 16.1 | 0.00 | 0.00 | 0.00 | 69 | 1016.3 |
| 20260507165012 | 12 | 360 | 6.4 | 16.1 | 0.00 | 0.00 | 0.00 | 68 | 1016.4 |
| 20260507164533 | 12 | 360 | 4.8 | 16.1 | 0.00 | 0.00 | 0.00 | 69 | 1016.4 |
| 20260507164015 | 12 | 360 | 4.8 | 16.1 | 0.00 | 0.00 | 0.00 | 69 | 1016.4 |
| 20260507163511 | 12 | 360 | 8.0 | 16.1 | 0.00 | 0.00 | 0.00 | 69 | 1016.4 |
| 20260507163031 | 12 | 360 | 8.0 | 19.3 | 0.00 | 0.00 | 0.00 | 69 | 1016.5 |
| 20260507162513 | 12 | 360 | 6.4 | 19.3 | 0.00 | 0.00 | 0.00 | 69 | 1016.4 |
| 20260507162012 | 12 | 360 | 6.4 | 12.9 | 0.00 | 0.00 | 0.00 | 69 | 1016.4 |
| 20260507161530 | 12 | 360 | 3.2 | 14.5 | 0.00 | 0.00 | 0.00 | 70 | 1016.3 |
| 20260507161013 | 12 | 360 | 3.2 | 16.1 | 0.00 | 0.00 | 0.00 | 70 | 1016.5 |
| 20260507160511 | 12 | 360 | 6.4 | 16.1 | 0.00 | 0.00 | 0.00 | 70 | 1016.5 |
| 20260507160034 | 12 | 360 | 6.4 | 16.1 | 0.00 | 0.00 | 0.00 | 69 | 1016.4 |
| 20260507155512 | 12 | 360 | 8.0 | 16.1 | 0.00 | 0.00 | 0.00 | 68 | 1016.5 |
| 20260507155014 | 12 | 360 | 6.4 | 16.1 | 0.00 | 0.00 | 0.00 | 67 | 1016.5 |
| 20260507154531 | 13 | 360 | 4.8 | 17.7 | 0.00 | 0.00 | 0.00 | 67 | 1016.4 |
| 20260507154014 | 13 | 360 | 6.4 | 17.7 | 0.00 | 0.00 | 0.00 | 66 | 1016.4 |
| 20260507153512 | 13 | 162 | 6.4 | 17.7 | 0.00 | 0.00 | 0.00 | 66 | 1016.5 |
| 20260507153031 | 13 | 360 | 6.4 | 14.5 | 0.00 | 0.00 | 0.00 | 65 | 1016.4 |
| 20260507152513 | 13 | 360 | 6.4 | 14.5 | 0.00 | 0.00 | 0.00 | 64 | 1016.4 |
| 20260507152012 | 13 | 360 | 6.4 | 14.5 | 0.00 | 0.00 | 0.00 | 64 | 1016.4 |
| 20260507151530 | 13 | 360 | 3.2 | 20.9 | 0.00 | 0.00 | 0.00 | 64 | 1016.4 |
| 20260507151012 | 13 | 360 | 8.0 | 20.9 | 0.00 | 0.00 | 0.00 | 64 | 1016.3 |
| 20260507150513 | 13 | 360 | 8.0 | 17.7 | 0.00 | 0.00 | 0.00 | 64 | 1016.3 |
| 20260507150033 | 13 | 360 | 4.8 | 19.3 | 0.00 | 0.00 | 0.00 | 64 | 1016.3 |
| 20260507145512 | 13 | 360 | 4.8 | 19.3 | 0.00 | 0.00 | 0.00 | 64 | 1016.3 |
| 20260507145013 | 13 | 360 | 8.0 | 24.1 | 0.00 | 0.00 | 0.00 | 64 | 1016.3 |
| 20260507144532 | 13 | 360 | 8.0 | 24.1 | 0.00 | 0.00 | 0.00 | 64 | 1016.3 |
| 20260507144010 | 13 | 182 | 9.7 | 19.3 | 0.00 | 0.00 | 0.00 | 62 | 1016.2 |
| 20260507143511 | 14 | 173 | 8.0 | 16.1 | 0.00 | 0.00 | 0.00 | 61 | 1016.1 |
| 20260507143034 | 14 | 171 | 8.0 | 14.5 | 0.00 | 0.00 | 0.00 | 61 | 1016.4 |
| 20260507142510 | 14 | 149 | 8.0 | 14.5 | 0.00 | 0.00 | 0.00 | 59 | 1016.5 |
| 20260507142009 | 15 | 153 | 6.4 | 16.1 | 0.00 | 0.00 | 0.00 | 60 | 1016.4 |
| 20260507141530 | 15 | 161 | 6.4 | 16.1 | 0.00 | 0.00 | 0.00 | 61 | 1016.5 |
| 20260507141011 | 14 | 150 | 4.8 | 16.1 | 0.00 | 0.00 | 0.00 | 61 | 1016.6 |
| 20260507140513 | 14 | 115 | 6.4 | 16.1 | 0.00 | 0.00 | 0.00 | 62 | 1016.7 |
| 20260507140032 | 13 | 165 | 6.4 | 17.7 | 0.00 | 0.00 | 0.00 | 64 | 1016.6 |
| 20260507135517 | 13 | 170 | 9.7 | 17.7 | 0.00 | 0.00 | 0.00 | 63 | 1016.7 |
| 20260507135017 | 14 | 196 | 6.4 | 17.7 | 0.00 | 0.00 | 0.00 | 65 | 1016.6 |
| 20260507134531 | 13 | 136 | 8.0 | 20.9 | 0.00 | 0.00 | 0.00 | 64 | 1016.6 |
| 20260507134013 | 13 | 173 | 9.7 | 20.9 | 0.00 | 0.00 | 0.00 | 62 | 1016.8 |
| 20260507133512 | 13 | 144 | 8.0 | 16.1 | 0.00 | 0.00 | 0.00 | 64 | 1016.6 |
| 20260507133032 | 13 | 156 | 6.4 | 17.7 | 0.00 | 0.00 | 0.00 | 66 | 1016.7 |
| 20260507132515 | 13 | 190 | 8.0 | 19.3 | 0.00 | 0.00 | 0.00 | 66 | 1016.7 |
| 20260507132015 | 13 | 157 | 9.7 | 19.3 | 0.00 | 0.00 | 0.00 | 66 | 1016.7 |
| 20260507131548 | 13 | 183 | 9.7 | 19.3 | 0.00 | 0.00 | 0.00 | 66 | 1016.7 |
| 20260507131011 | 13 | 157 | 8.0 | 22.5 | 0.00 | 0.00 | 0.00 | 67 | 1016.8 |
| 20260507130514 | 13 | 165 | 9.7 | 24.1 | 0.00 | 0.00 | 0.00 | 67 | 1016.8 |
| 20260507130032 | 13 | 114 | 11.3 | 24.1 | 0.00 | 0.00 | 0.00 | 66 | 1016.8 |
| 20260507125512 | 13 | 163 | 8.0 | 17.7 | 0.00 | 0.00 | 0.00 | 66 | 1016.7 |
| 20260507125011 | 13 | 360 | 8.0 | 17.7 | 0.00 | 0.00 | 0.00 | 65 | 1016.7 |
| 20260507124534 | 13 | 171 | 8.0 | 19.3 | 0.00 | 0.00 | 0.00 | 65 | 1016.8 |
| 20260507124016 | 13 | 360 | 6.4 | 19.3 | 0.00 | 0.00 | 0.00 | 65 | 1016.7 |
| 20260507123513 | 13 | 162 | 6.4 | 14.5 | 0.00 | 0.00 | 0.00 | 64 | 1016.8 |
| 20260507123031 | 13 | 142 | 6.4 | 16.1 | 0.00 | 0.00 | 0.00 | 64 | 1016.8 |
| 20260507122509 | 13 | 150 | 8.0 | 16.1 | 0.00 | 0.00 | 0.00 | 64 | 1016.6 |
| 20260507122014 | 13 | 165 | 6.4 | 14.5 | 0.00 | 0.00 | 0.00 | 64 | 1016.7 |
| 20260507121528 | 13 | 130 | 4.8 | 14.5 | 0.00 | 0.00 | 0.00 | 64 | 1016.7 |
| 20260507121012 | 13 | 129 | 3.2 | 14.5 | 0.00 | 0.00 | 0.00 | 65 | 1016.8 |
| 20260507120512 | 13 | 163 | 8.0 | 14.5 | 0.00 | 0.00 | 0.00 | 64 | 1016.8 |
| 20260507120038 | 13 | 360 | 4.8 | 12.9 | 0.00 | 0.00 | 0.00 | 64 | 1016.8 |
| 20260507115513 | 13 | 360 | 4.8 | 19.3 | 0.00 | 0.00 | 0.00 | 64 | 1016.8 |
| 20260507115017 | 13 | 360 | 6.4 | 19.3 | 0.00 | 0.00 | 0.00 | 65 | 1017.0 |
| 20260507114532 | 13 | 360 | 3.2 | 14.5 | 0.00 | 0.00 | 0.00 | 65 | 1016.8 |
| 20260507114012 | 13 | 109 | 4.8 | 14.5 | 0.00 | 0.00 | 0.00 | 65 | 1016.9 |
| 20260507113513 | 13 | 360 | 6.4 | 14.5 | 0.00 | 0.00 | 0.00 | 65 | 1016.8 |
| 20260507113029 | 13 | 360 | 6.4 | 14.5 | 0.00 | 0.00 | 0.00 | 65 | 1017.0 |
| 20260507112513 | 13 | 360 | 3.2 | 14.5 | 0.00 | 0.00 | 0.00 | 65 | 1017.0 |
| 20260507112014 | 13 | 360 | 6.4 | 14.5 | 0.00 | 0.00 | 0.00 | 66 | 1016.9 |
| 20260507111530 | 12 | 360 | 4.8 | 17.7 | 0.00 | 0.00 | 0.00 | 65 | 1017.0 |
| 20260507111010 | 12 | 360 | 4.8 | 17.7 | 0.00 | 0.00 | 0.00 | 67 | 1017.0 |
| 20260507110512 | 12 | 360 | 4.8 | 12.9 | 0.00 | 0.00 | 0.00 | 67 | 1017.0 |
| 20260507110028 | 12 | 360 | 3.2 | 12.9 | 0.00 | 0.00 | 0.00 | 67 | 1017.1 |
| 20260507105513 | 12 | 360 | 4.8 | 9.7 | 0.00 | 0.00 | 0.00 | 67 | 1017.0 |
| 20260507105012 | 12 | 360 | 1.6 | 8.0 | 0.00 | 0.00 | 0.00 | 67 | 1017.0 |
| 20260507104528 | 12 | 360 | 1.6 | 8.0 | 0.00 | 0.00 | 0.00 | 67 | 1017.0 |
| 20260507104015 | 12 | 360 | 4.8 | 8.0 | 0.00 | 0.00 | 0.00 | 68 | 1017.0 |
| 20260507103515 | 12 | 137 | 3.2 | 6.4 | 0.00 | 0.00 | 0.00 | 67 | 1017.0 |
| 20260507103032 | 12 | 133 | 0.0 | 8.0 | 0.00 | 0.00 | 0.00 | 67 | 1017.0 |
| 20260507102515 | 12 | 133 | 1.6 | 8.0 | 0.00 | 0.00 | 0.00 | 67 | 1017.1 |
| 20260507102010 | 12 | 132 | 1.6 | 8.0 | 0.00 | 0.00 | 0.00 | 66 | 1017.1 |
| 20260507101532 | 12 | 137 | 1.6 | 6.4 | 0.00 | 0.00 | 0.00 | 67 | 1017.1 |
| 20260507101009 | 12 | 137 | 1.6 | 6.4 | 0.00 | 0.00 | 0.00 | 68 | 1017.2 |
| 20260507100510 | 12 | 144 | 0.0 | 6.4 | 0.00 | 0.00 | 0.00 | 68 | 1017.0 |
| 20260507100035 | 12 | 144 | 1.6 | 6.4 | 0.00 | 0.00 | 0.00 | 67 | 1017.1 |
| 20260507095515 | 12 | 148 | 0.0 | 8.0 | 0.00 | 0.00 | 0.00 | 68 | 1017.1 |
| 20260507095011 | 12 | 148 | 1.6 | 8.0 | 0.00 | 0.00 | 0.00 | 68 | 1017.1 |
| 20260507094530 | 12 | 149 | 1.6 | 6.4 | 0.00 | 0.00 | 0.00 | 69 | 1017.2 |
| 20260507094012 | 12 | 360 | 0.0 | 11.3 | 0.00 | 0.00 | 0.00 | 68 | 1017.1 |
| 20260507093511 | 12 | 360 | 4.8 | 11.3 | 0.00 | 0.00 | 0.00 | 68 | 1017.1 |
| 20260507093032 | 12 | 146 | 4.8 | 8.0 | 0.00 | 0.00 | 0.00 | 68 | 1017.1 |
| 20260507092509 | 12 | 0 | 0.0 | 12.9 | 0.00 | 0.00 | 0.00 | 69 | 1017.1 |
| 20260507092012 | 12 | 139 | 4.8 | 12.9 | 0.00 | 0.00 | 0.00 | 68 | 1017.2 |
| 20260507091530 | 12 | 162 | 4.8 | 9.7 | 0.00 | 0.00 | 0.00 | 69 | 1017.1 |
| 20260507091014 | 12 | 163 | 3.2 | 8.0 | 0.00 | 0.00 | 0.00 | 69 | 1017.1 |
| 20260507090517 | 12 | 164 | 0.0 | 9.7 | 0.00 | 0.00 | 0.00 | 71 | 1017.1 |
| 20260507090036 | 12 | 164 | 0.0 | 9.7 | 0.00 | 0.00 | 0.00 | 71 | 1017.2 |
| 20260507085511 | 12 | 164 | 1.6 | 11.3 | 0.00 | 0.00 | 0.00 | 73 | 1017.0 |
| 20260507085012 | 12 | 166 | 1.6 | 12.9 | 0.00 | 0.00 | 0.00 | 72 | 1017.0 |
| 20260507084531 | 12 | 170 | 4.8 | 12.9 | 0.00 | 0.00 | 0.00 | 74 | 1017.0 |
| 20260507084010 | 11 | 0 | 0.0 | 9.7 | 0.00 | 0.00 | 0.00 | 74 | 1017.1 |
| 20260507083513 | 11 | 173 | 1.6 | 16.1 | 0.00 | 0.00 | 0.00 | 74 | 1017.0 |
| 20260507083028 | 11 | 175 | 6.4 | 16.1 | 0.00 | 0.00 | 0.00 | 74 | 1017.1 |
| 20260507082512 | 11 | 163 | 1.6 | 6.4 | 0.00 | 0.00 | 0.00 | 75 | 1017.1 |
| 20260507082012 | 11 | 360 | 1.6 | 9.7 | 0.00 | 0.00 | 0.00 | 75 | 1017.0 |
| 20260507081541 | 11 | 360 | 1.6 | 9.7 | 0.00 | 0.00 | 0.00 | 76 | 1017.0 |
| 20260507081012 | 11 | 360 | 3.2 | 12.9 | 0.00 | 0.00 | 0.00 | 76 | 1017.0 |
| 20260507080513 | 11 | 360 | 4.8 | 12.9 | 0.00 | 0.00 | 0.00 | 76 | 1016.9 |
| 20260507080030 | 11 | 360 | 3.2 | 9.7 | 0.00 | 0.00 | 0.00 | 77 | 1017.0 |
| 20260507075516 | 10 | 360 | 3.2 | 12.9 | 0.00 | 0.00 | 0.00 | 78 | 1016.9 |
| 20260507075012 | 10 | 360 | 4.8 | 12.9 | 0.00 | 0.00 | 0.00 | 78 | 1017.0 |
| 20260507074550 | 10 | 360 | 4.8 | 8.0 | 0.00 | 0.00 | 0.00 | 78 | 1016.9 |
| 20260507074010 | 10 | 360 | 3.2 | 12.9 | 0.00 | 0.00 | 0.00 | 78 | 1017.0 |
| 20260507073511 | 10 | 360 | 3.2 | 12.9 | 0.00 | 0.00 | 0.00 | 79 | 1016.9 |
| 20260507073028 | 10 | 360 | 3.2 | 9.7 | 0.00 | 0.00 | 0.00 | 80 | 1016.8 |
| 20260507072510 | 10 | 360 | 3.2 | 9.7 | 0.00 | 0.00 | 0.00 | 81 | 1016.7 |
| 20260507072012 | 10 | 360 | 3.2 | 9.7 | 0.00 | 0.00 | 0.00 | 81 | 1016.7 |
| 20260507071529 | 9 | 360 | 3.2 | 9.7 | 0.00 | 0.00 | 0.00 | 81 | 1016.8 |
| 20260507071012 | 9 | 360 | 3.2 | 9.7 | 0.00 | 0.00 | 0.00 | 82 | 1016.6 |
| 20260507070512 | 9 | 360 | 4.8 | 9.7 | 0.00 | 0.00 | 0.00 | 82 | 1016.6 |
| 20260507070029 | 9 | 360 | 3.2 | 9.7 | 0.00 | 0.00 | 0.00 | 82 | 1016.7 |
| 20260507065512 | 9 | 360 | 4.8 | 9.7 | 0.00 | 0.00 | 0.00 | 83 | 1016.7 |
| 20260507065010 | 9 | 360 | 3.2 | 9.7 | 0.00 | 0.00 | 0.00 | 84 | 1016.7 |
| 20260507064532 | 8 | 360 | 4.8 | 9.7 | 0.00 | 0.00 | 0.00 | 84 | 1016.7 |
| 20260507064011 | 8 | 360 | 3.2 | 9.7 | 0.00 | 0.00 | 0.00 | 85 | 1016.7 |
| 20260507063511 | 8 | 360 | 4.8 | 9.7 | 0.00 | 0.00 | 0.00 | 86 | 1016.5 |
| 20260507063030 | 8 | 360 | 3.2 | 9.7 | 0.00 | 0.00 | 0.00 | 88 | 1016.6 |
| 20260507062511 | 8 | 360 | 3.2 | 9.7 | 0.00 | 0.00 | 0.00 | 89 | 1016.6 |
| 20260507062010 | 8 | 360 | 3.2 | 9.7 | 0.00 | 0.00 | 0.00 | 90 | 1016.6 |
| 20260507061532 | 7 | 360 | 3.2 | 9.7 | 0.00 | 0.00 | 0.00 | 91 | 1016.7 |
| 20260507061009 | 7 | 360 | 3.2 | 9.7 | 0.00 | 0.00 | 0.00 | 91 | 1016.6 |
| 20260507060512 | 7 | 360 | 1.6 | 9.7 | 0.00 | 0.00 | 0.00 | 91 | 1016.5 |
| 20260507060030 | 7 | 360 | 3.2 | 9.7 | 0.00 | 0.00 | 0.00 | 91 | 1016.5 |
| 20260507055512 | 6 | 360 | 1.6 | 4.8 | 0.00 | 0.00 | 0.00 | 91 | 1016.5 |
| 20260507055014 | 6 | 0 | 0.0 | 1.6 | 0.00 | 0.00 | 0.00 | 91 | 1016.5 |
| 20260507054530 | 6 | 0 | 0.0 | 1.6 | 0.00 | 0.00 | 0.00 | 91 | 1016.5 |
| 20260507054010 | 6 | 0 | 0.0 | 1.6 | 0.00 | 0.00 | 0.00 | 91 | 1016.5 |
| 20260507053513 | 6 | 0 | 0.0 | 1.6 | 0.00 | 0.00 | 0.00 | 90 | 1016.5 |
| 20260507053030 | 5 | 0 | 0.0 | 3.2 | 0.00 | 0.00 | 0.00 | 90 | 1016.4 |
| 20260507052512 | 5 | 0 | 0.0 | 3.2 | 0.00 | 0.00 | 0.00 | 90 | 1016.4 |
| 20260507052011 | 5 | 360 | 0.0 | 4.8 | 0.00 | 0.00 | 0.00 | 90 | 1016.3 |
| 20260507051530 | 5 | 0 | 0.0 | 4.8 | 0.00 | 0.00 | 0.00 | 90 | 1016.4 |
| 20260507051017 | 5 | 360 | 0.0 | 4.8 | 0.00 | 0.00 | 0.00 | 90 | 1016.3 |
| 20260507050511 | 6 | 0 | 0.0 | 3.2 | 0.00 | 0.00 | 0.00 | 90 | 1016.4 |
| 20260507050029 | 5 | 360 | 0.0 | 3.2 | 0.00 | 0.00 | 0.00 | 90 | 1016.3 |
| 20260507045511 | 5 | 360 | 1.6 | 3.2 | 0.00 | 0.00 | 0.00 | 89 | 1016.3 |
| 20260507045010 | 5 | 360 | 0.0 | 0.0 | 0.00 | 0.00 | 0.00 | 89 | 1016.2 |
| 20260507044530 | 5 | 0 | 0.0 | 0.0 | 0.00 | 0.00 | 0.00 | 89 | 1016.3 |
| 20260507044011 | 5 | 0 | 0.0 | 0.0 | 0.00 | 0.00 | 0.00 | 89 | 1016.3 |
| 20260507043511 | 5 | 0 | 0.0 | 0.0 | 0.00 | 0.00 | 0.00 | 89 | 1016.3 |
| 20260507043032 | 5 | 0 | 0.0 | 0.0 | 0.00 | 0.00 | 0.00 | 89 | 1016.3 |
| 20260507042512 | 6 | 0 | 0.0 | 0.0 | 0.00 | 0.00 | 0.00 | 89 | 1016.1 |
| 20260507042011 | 6 | 0 | 0.0 | 0.0 | 0.00 | 0.00 | 0.00 | 89 | 1016.2 |
| 20260507041531 | 6 | 0 | 0.0 | 0.0 | 0.00 | 0.00 | 0.00 | 89 | 1016.3 |
| 20260507041013 | 6 | 0 | 0.0 | 0.0 | 0.00 | 0.00 | 0.00 | 89 | 1016.2 |
| 20260507040512 | 6 | 0 | 0.0 | 0.0 | 0.00 | 0.00 | 0.00 | 89 | 1016.1 |
| 20260507040029 | 6 | 0 | 0.0 | 0.0 | 0.00 | 0.00 | 0.00 | 89 | 1016.1 |
| 20260507035514 | 6 | 0 | 0.0 | 0.0 | 0.00 | 0.00 | 0.00 | 89 | 1016.1 |
| 20260507035012 | 6 | 0 | 0.0 | 0.0 | 0.00 | 0.00 | 0.00 | 89 | 1015.9 |
| 20260507034533 | 6 | 0 | 0.0 | 0.0 | 0.00 | 0.00 | 0.00 | 89 | 1016.2 |
| 20260507034012 | 6 | 0 | 0.0 | 0.0 | 0.00 | 0.00 | 0.00 | 89 | 1016.1 |
| 20260507033514 | 6 | 0 | 0.0 | 0.0 | 0.00 | 0.00 | 0.00 | 89 | 1016.1 |
| 20260507033032 | 6 | 0 | 0.0 | 0.0 | 0.00 | 0.00 | 0.00 | 89 | 1016.1 |
| 20260507032512 | 6 | 0 | 0.0 | 0.0 | 0.00 | 0.00 | 0.00 | 89 | 1016.0 |
| 20260507032015 | 6 | 0 | 0.0 | 0.0 | 0.00 | 0.00 | 0.00 | 89 | 1016.0 |
| 20260507031531 | 6 | 0 | 0.0 | 1.6 | 0.00 | 0.00 | 0.00 | 89 | 1016.1 |
| 20260507031015 | 6 | 0 | 0.0 | 1.6 | 0.00 | 0.00 | 0.00 | 88 | 1016.0 |
| 20260507030513 | 6 | 0 | 0.0 | 1.6 | 0.00 | 0.00 | 0.00 | 88 | 1015.9 |
| 20260507030030 | 6 | 0 | 0.0 | 0.0 | 0.00 | 0.00 | 0.00 | 88 | 1016.0 |
| 20260507025513 | 6 | 0 | 0.0 | 0.0 | 0.00 | 0.00 | 0.00 | 88 | 1016.0 |
| 20260507025014 | 6 | 0 | 0.0 | 0.0 | 0.00 | 0.00 | 0.00 | 88 | 1015.9 |
| 20260507024533 | 6 | 0 | 0.0 | 0.0 | 0.00 | 0.00 | 0.00 | 88 | 1016.0 |
| 20260507024016 | 6 | 0 | 0.0 | 0.0 | 0.00 | 0.00 | 0.00 | 88 | 1016.0 |
| 20260507023514 | 6 | 0 | 0.0 | 0.0 | 0.00 | 0.00 | 0.00 | 88 | 1016.0 |
| 20260507023030 | 6 | 0 | 0.0 | 0.0 | 0.00 | 0.00 | 0.00 | 88 | 1016.0 |
| 20260507022512 | 6 | 0 | 0.0 | 0.0 | 0.00 | 0.00 | 0.00 | 88 | 1016.1 |
| 20260507022013 | 6 | 0 | 0.0 | 0.0 | 0.00 | 0.00 | 0.00 | 88 | 1016.0 |
| 20260507021534 | 6 | 0 | 0.0 | 0.0 | 0.00 | 0.00 | 0.00 | 88 | 1016.0 |
| 20260507021014 | 6 | 0 | 0.0 | 0.0 | 0.00 | 0.00 | 0.00 | 87 | 1016.0 |
| 20260507020516 | 6 | 0 | 0.0 | 0.0 | 0.00 | 0.00 | 0.00 | 87 | 1016.0 |
| 20260507020031 | 6 | 0 | 0.0 | 0.0 | 0.00 | 0.00 | 0.00 | 87 | 1015.9 |
| 20260507015515 | 6 | 0 | 0.0 | 0.0 | 0.00 | 0.00 | 0.00 | 87 | 1015.9 |
| 20260507015011 | 6 | 0 | 0.0 | 0.0 | 0.00 | 0.00 | 0.00 | 86 | 1015.9 |
| 20260507014543 | 6 | 0 | 0.0 | 0.0 | 0.00 | 0.00 | 0.00 | 86 | 1015.9 |
| 20260507014013 | 6 | 0 | 0.0 | 0.0 | 0.00 | 0.00 | 0.00 | 86 | 1015.9 |
| 20260507013516 | 6 | 0 | 0.0 | 0.0 | 0.00 | 0.00 | 0.00 | 86 | 1015.8 |
| 20260507013031 | 6 | 0 | 0.0 | 0.0 | 0.00 | 0.00 | 0.00 | 86 | 1015.8 |
| 20260507012513 | 6 | 0 | 0.0 | 0.0 | 0.00 | 0.00 | 0.00 | 85 | 1015.7 |
| 20260507012017 | 7 | 0 | 0.0 | 0.0 | 0.00 | 0.00 | 0.00 | 85 | 1015.8 |
| 20260507011533 | 7 | 0 | 0.0 | 1.6 | 0.00 | 0.00 | 0.00 | 85 | 1015.8 |
| 20260507011013 | 7 | 0 | 0.0 | 1.6 | 0.00 | 0.00 | 0.00 | 85 | 1015.6 |
| 20260507010513 | 7 | 360 | 0.0 | 1.6 | 0.00 | 0.00 | 0.00 | 85 | 1015.7 |
| 20260507010035 | 7 | 0 | 0.0 | 1.6 | 0.00 | 0.00 | 0.00 | 84 | 1015.7 |
| 20260507005514 | 7 | 0 | 0.0 | 3.2 | 0.00 | 0.00 | 0.00 | 84 | 1015.8 |